Regional Weather Roundup
Issued by NWS

Home | Current Version | Previous Version | Text Only | Print | Product List | Glossary On
Versions: 1 2 3 4 5 6 7 8 9 10 11 12 13 14 15 16 17 18 19 20 21 22 23 24 25 26 27 28 29 30 31 32 33 34 35 36 37 38 39 40 41 42 43 44 45 46 47 48 49 50
000
ASUS44 KLIX 280512
RWRLA
LOUISIANA WEATHER ROUNDUP
NATIONAL WEATHER SERVICE NEW ORLEANS LA
1200 AM CDT TUE APR 28 2015

NOTE: "FAIR" INDICATES FEW OR NO CLOUDS BELOW 12,000 FEET WITH NO
      SIGNIFICANT WEATHER AND/OR OBSTRUCTIONS TO VISIBILITY.
      SKY/WX - SKY CONDITION AND SIGNIFICANT WEATHER.
      TMP - AIR TEMPERATURE.    DP   - DEWPOINT TEMPERATURE.
      RH  - RELATIVE HUMIDITY.  PRES - PRESSURE.
      HX  - HEAT INDEX.         WCI  - WIND CHILL INDEX.

*  THESE STATIONS ARE NOT NWS OR FAA STATIONS AND ARE NOT UNDER
   NWS QUALITY CONTROL.

LAZ040-048-061>063-065-066-069-280600-
SOUTHEAST LOUISIANA

CITY           SKY/WX    TMP DP  RH WIND       PRES   REMARKS
N.O. AUDUBON   NOT AVBL
N.O. INTL ARPT CLOUDY    69  65  86 SE15G28   29.72F
N.O. LAKEFRONT CLOUDY    71  66  84 SE18G25   29.74F
SLIDELL        CLOUDY    63  63 100 NE7       29.77R
BATON ROUGE    CLOUDY    62  60  93 N6        29.78R
BOOTHVILLE     RAIN      70  68  93 E13       29.80F FOG
BELLE CHASSE   LGT RAIN  68  66  94 SE15G28   29.74F
BOGALUSA*        N/A     61  57  87 E9        29.79F
GALLIANO*      RAIN      69  68  96 MISG      29.75F
NEW ROADS*     CLOUDY    60  58  92 N14       29.80S
GONZALES*      MOCLDY    66  66 100 CALM      29.74R
HAMMOND*       CLOUDY    61  59  94 NE6       29.79R
HOUMA*         CLOUDY    68  67  98 E15       29.73F
PORT FOURCHON* CLOUDY    72  70  94 E22G30    29.79F FOG

$$

LAZ041-044-053-054-280600-
SOUTHWEST LOUISIANA

CITY           SKY/WX    TMP DP  RH WIND       PRES   REMARKS
LAKE CHARLES   CLOUDY    65  62  90 NE14      29.77R
LAFAYETTE      CLOUDY    65  63  93 NE12      29.77R
PATTERSON      NOT AVBL
SALT POINT       N/A     68  66  93 SE8       29.71F
NEW IBERIA     CLOUDY    66  64  93 N10       29.77R
CHENAULT AIRPK CLOUDY    64  61  93 NE9       29.78S

$$

LAZ027-028-280600-
CENTRAL LOUISIANA

CITY           SKY/WX    TMP DP  RH WIND       PRES   REMARKS
FORT POLK      CLOUDY    63  56  77 VRB7      29.79S
ALEXANDRIA INT CLOUDY   N/A N/A N/A NE5       29.80S
ALEXANDRIA     CLOUDY    64  54  69 E7        29.81F

$$

LAZ001-002-280600-
NORTHWEST LOUISIANA

CITY           SKY/WX    TMP DP  RH WIND       PRES   REMARKS
SHREVEPORT     CLOUDY    63  47  55 E14       29.83F
BARKSDALE AFB  CLOUDY    62  46  56 E12G21    29.83F
DTN SHREVEPORT CLOUDY    62  46  55 E10G20    29.83F

$$

LAZ014-016-280600-
NORTHEAST LOUISIANA

CITY           SKY/WX    TMP DP  RH WIND       PRES   REMARKS
MONROE         CLEAR     60  49  66 NE7       29.88F
TALLULAH       MOCLDY    61  51  70 NE7       29.87F

$$



USA.gov is the U.S. government's official web portal to all federal, state and local government web resources and services.